Theta_e
366 364 363 361 360 361 360 357 354 354 355 353 353 356 355 360 361 360 360 361 360 361 361 365 366 364 357 360 363 362 360 359 359 358 358 356 355 354 350 350 350 349
366 365 364 362 362 362 362 358 357 354 355 356 355 357 361 361 359 360 359 359 361 360 362 363 366 365 362 359 360 358 357 357 357 354 356 355 355 354 352 352 351 352
365 365 363 360 358 360 359 361 360 357 353 353 354 356 356 360 359 362 361 360 360 358 362 364 366 365 362 363 362 359 356 357 356 355 358 357 357 357 358 356 354 352
365 364 361 360 359 357 359 360 359 359 357 353 352 354 356 356 358 358 361 362 360 359 359 361 363 363 365 361 362 363 359 362 360 362 361 360 360 360 360 359 357 354
363 363 362 361 361 361 360 359 357 357 356 355 353 355 355 359 360 357 359 360 363 360 362 362 364 364 365 365 362 360 359 358 358 360 360 361 362 360 359 358 360 357
363 365 365 361 362 361 358 358 357 355 355 355 354 353 354 356 356 357 356 357 356 358 358 363 363 364 363 363 362 361 360 356 357 360 358 359 359 360 360 360 361 358
359 362 361 361 360 359 357 358 358 359 356 356 357 355 356 354 355 356 357 356 355 356 359 364 366 364 361 363 362 361 361 361 360 360 359 357 357 356 356 358 359 359
362 362 363 361 358 359 357 356 357 358 358 359 357 358 358 356 356 355 356 356 355 357 360 363 367 368 364 362 361 361 360 359 359 360 360 359 358 357 359 360 359 358
363 363 364 363 358 357 355 355 357 359 360 358 358 359 361 360 358 358 360 362 362 363 365 365 366 366 365 363 362 362 360 357 357 357 357 356 355 356 358 359 357 357
364 364 364 364 358 356 359 359 359 359 360 360 361 363 362 367 364 361 364 367 365 365 365 365 365 365 364 365 363 361 359 358 359 358 356 354 355 355 355 356 357 357
363 364 364 364 359 357 361 363 361 360 364 365 365 365 367 366 364 364 364 366 364 364 364 365 364 365 365 364 362 361 360 357 358 358 357 357 357 358 356 356 356 355
361 361 362 366 365 362 364 366 366 365 364 365 365 366 367 366 365 365 362 362 365 364 364 365 367 366 365 363 362 362 360 358 357 357 356 356 357 356 357 358 356 356
359 361 363 366 368 367 368 369 369 369 367 366 367 367 368 367 365 365 365 365 366 366 365 365 365 364 364 365 363 363 361 358 358 357 357 357 358 357 355 355 355 354
355 359 363 365 365 366 367 368 367 367 368 368 368 367 366 365 364 365 365 366 365 363 362 363 362 362 362 363 362 361 359 358 358 357 356 356 355 355 355 355 355 355
359 360 364 365 365 363 364 365 364 365 366 367 366 366 364 365 365 365 363 362 361 361 361 361 359 359 360 359 359 360 359 357 357 356 355 354 354 356 356 357 357 356
359 361 364 365 365 364 364 364 366 365 364 365 365 364 365 364 365 363 362 361 360 359 360 359 358 359 357 354 354 360 360 360 358 359 358 358 358 358 358 359 358 358
357 360 361 362 362 362 363 364 364 364 363 362 362 362 363 363 361 361 360 360 358 357 357 357 357 358 355 347 348 351 358 360 358 359 360 358 358 357 357 359 359 360
358 359 360 361 361 360 362 363 363 362 361 361 361 361 362 361 358 358 358 358 357 358 358 358 359 352 341 344 344 345 349 357 357 356 357 356 356 356 357 358 358 359
360 360 361 361 360 361 361 361 361 360 359 360 360 360 359 358 358 357 357 357 357 356 355 356 356 342 339 341 340 340 342 352 357 356 356 356 356 357 358 358 358 357
362 361 360 360 360 361 361 360 359 358 359 360 359 359 358 357 356 356 357 357 356 356 357 355 356 345 337 338 338 337 339 347 358 357 357 357 358 358 358 358 358 357
362 361 359 360 360 359 358 359 359 358 358 358 357 356 356 356 355 355 356 356 356 355 354 354 354 336 336 337 335 334 337 348 359 358 357 356 354 353 353 353 353 353
361 360 360 359 358 358 357 356 356 357 356 356 356 357 357 357 357 358 357 357 356 355 354 354 348 329 332 332 331 333 340 355 355 353 351 351 351 351 351 353 353 353
362 361 360 358 358 357 356 356 355 356 356 357 357 356 355 355 355 357 358 356 356 355 355 354 349 331 324 326 329 331 342 352 350 348 348 348 349 349 349 350 351 351
362 361 359 358 355 355 355 356 356 357 358 358 355 354 354 355 356 356 357 357 357 357 358 354 348 335 324 323 325 329 346 350 350 347 347 347 348 348 349 348 348 343
358 358 358 357 356 356 357 356 357 356 357 358 357 357 356 356 354 355 357 359 358 358 354 353 349 338 320 321 323 327 343 352 349 349 347 347 346 345 347 346 346 346
360 359 358 357 356 357 358 357 357 358 357 357 357 357 355 356 355 357 357 357 360 359 354 354 349 345 333 317 319 323 329 355 351 346 345 345 346 343 342 344 346 346
Wind_Speed
9 9 9 8 8 7 6 7 7 8 7 6 5 6 6 5 4 4 5 4 5 5 5 6 6 6 6 6 6 6 7 8 7 6 6 7 8 10 10 11 12 11
11 9 7 7 6 6 6 6 6 6 6 6 6 4 4 4 6 6 6 6 6 6 5 6 6 7 7 6 6 7 7 7 8 7 7 9 10 11 11 12 12 11
11 10 10 10 8 9 9 8 6 6 6 7 8 7 7 6 7 6 6 6 5 5 5 6 5 6 7 6 5 5 6 6 8 8 6 6 7 9 9 8 8 9
12 11 10 10 9 8 8 7 7 6 6 7 8 8 7 7 6 6 6 6 6 5 5 5 6 3 3 4 2 0 3 3 2 3 4 5 5 6 6 6 7 9
11 11 9 8 7 7 7 7 7 7 7 7 7 8 7 6 6 7 7 6 5 6 6 6 5 5 5 3 3 3 3 4 4 4 5 6 7 8 8 7 7 8
9 9 9 8 7 7 8 8 8 8 8 8 8 7 7 7 8 8 8 7 7 7 7 5 6 5 5 5 4 4 4 5 6 7 8 7 8 8 6 7 7 8
9 9 10 8 9 9 8 8 7 7 8 8 7 7 7 8 9 9 8 8 8 8 5 6 6 5 4 5 5 5 5 6 7 6 7 8 8 9 9 9 8 9
9 8 8 8 9 9 9 9 8 8 8 7 8 7 7 9 9 8 8 8 9 8 8 6 6 6 6 6 6 6 7 6 7 8 8 8 8 9 8 7 8 9
9 8 8 9 9 8 9 9 9 9 8 9 8 7 8 8 8 7 6 6 5 4 4 5 6 5 5 5 6 6 7 7 7 7 7 8 9 9 9 8 9 9
9 8 8 8 9 8 9 8 8 8 8 8 7 6 5 3 3 4 4 4 5 6 6 6 5 5 5 5 6 6 7 7 7 7 8 8 8 8 8 7 8 8
8 8 8 9 9 7 8 7 7 6 4 5 5 5 4 5 5 5 5 6 6 7 7 7 6 6 6 6 6 6 7 7 6 7 7 8 8 7 7 7 8 9
5 6 7 8 6 5 5 6 5 5 4 5 5 5 5 5 6 5 5 6 6 6 7 7 6 6 5 5 6 6 6 7 8 8 8 8 8 8 8 7 8 8
4 4 3 3 4 4 4 4 4 5 6 6 5 5 5 5 5 5 5 5 5 6 6 6 6 6 5 6 6 6 7 7 7 7 7 7 7 7 7 7 8 9
6 4 4 5 4 5 5 4 5 5 5 4 3 4 4 5 5 5 5 5 5 6 5 5 5 5 6 6 6 6 6 6 6 6 6 6 6 7 7 8 8 8
7 5 4 4 5 6 6 7 7 6 5 4 4 4 4 5 6 5 6 5 4 5 5 5 5 5 4 4 4 4 4 5 5 5 5 5 6 7 7 7 6 7
8 6 5 5 6 6 6 7 6 5 5 5 5 5 5 5 5 5 4 4 5 4 4 4 4 3 3 2 3 3 3 3 3 3 5 5 5 4 5 5 6 7
6 6 6 6 6 5 5 6 5 5 5 6 6 5 5 4 4 4 4 4 4 4 4 4 3 2 8 6 4 6 5 4 3 3 3 2 3 3 4 5 5 5
8 8 8 8 6 6 5 5 6 6 6 6 5 5 4 4 4 3 3 2 3 4 4 3 2 8 9 8 5 3 4 3 2 2 1 2 3 4 4 4 5 5
8 9 10 9 8 7 6 7 7 6 6 6 6 5 5 4 4 4 4 4 4 4 3 2 4 9 8 5 4 2 2 6 2 1 2 3 3 3 4 4 4 4
9 10 10 9 8 7 7 8 7 7 6 6 6 6 5 5 5 5 5 4 3 3 3 3 5 7 6 4 2 1 4 6 2 2 2 1 2 2 3 3 4 4
9 10 8 7 7 8 7 7 7 7 7 7 6 6 6 6 6 5 5 5 4 4 4 3 5 6 4 3 2 3 4 8 1 1 0 0 2 3 4 3 4 5
8 9 8 8 8 8 9 8 8 8 8 7 6 6 6 6 5 5 5 5 4 4 4 5 6 8 6 4 1 3 6 3 2 2 2 2 2 3 3 4 4 6
8 8 7 8 9 9 9 9 9 9 8 7 7 7 7 6 6 5 5 5 5 4 5 7 7 6 6 5 5 7 7 1 1 2 2 3 3 3 3 4 5 6
6 7 8 9 9 9 10 10 9 8 8 7 8 7 6 6 6 5 5 5 5 4 5 8 6 6 7 6 6 7 9 2 2 3 3 2 3 2 3 3 3 1
7 8 9 9 10 10 10 10 9 8 8 7 7 6 6 6 6 6 5 4 5 6 10 9 7 5 6 6 6 7 8 2 2 3 2 3 3 3 3 3 4 0
9 10 9 9 10 9 9 8 8 8 8 7 6 6 6 6 6 6 6 5 6 7 7 8 6 5 6 7 7 7 9 5 2 3 3 3 4 4 3 3 3 4
Wind_Direction
207 207 210 210 215 219 222 213 215 209 220 236 220 209 216 218 220 240 245 237 213 223 212 215 220 227 235 233 231 240 249 257 266 261 264 280 267 264 262 260 263 266
206 209 211 214 208 211 217 229 218 227 205 219 244 237 220 218 214 220 230 234 219 221 221 211 214 224 235 242 226 232 240 242 244 245 234 232 251 257 261 268 272 277
204 201 203 210 210 203 215 212 224 222 224 217 215 226 232 218 224 215 228 230 239 244 209 209 224 228 235 239 251 250 246 254 254 259 285 290 288 278 277 280 272 269
205 209 208 212 215 216 210 211 204 215 228 220 226 223 220 236 231 222 218 218 241 235 243 230 223 210 106 108 123 252 297 290 283 336 296 278 275 277 274 264 278 282
206 206 211 211 213 215 222 217 216 210 215 226 231 226 227 227 240 240 231 223 214 233 214 220 187 178 166 147 155 189 219 251 252 248 249 250 254 252 257 259 259 260
203 204 204 206 200 207 211 216 216 218 222 224 222 229 226 222 233 240 247 245 230 217 227 181 186 182 176 174 191 219 228 240 237 230 239 248 258 263 262 261 258 252
200 196 199 197 201 203 217 219 221 223 225 227 225 225 223 224 225 234 238 239 246 259 235 189 194 198 193 185 202 220 237 246 257 245 249 255 258 264 267 264 257 258
201 195 196 200 202 199 214 219 219 218 222 226 227 220 229 230 234 236 231 235 244 236 236 213 199 187 192 194 208 213 223 232 237 236 245 254 259 263 259 259 265 263
195 197 189 195 206 203 215 213 214 220 216 219 218 225 216 230 237 239 247 260 259 245 225 227 222 210 204 205 213 222 233 238 240 240 241 247 251 254 256 258 261 263
189 191 190 191 205 211 216 218 220 215 219 222 227 228 233 228 244 253 255 234 231 239 234 228 223 217 212 208 214 220 229 235 236 238 246 253 258 263 265 264 265 269
188 193 194 198 208 213 216 217 223 232 221 227 228 236 224 233 242 246 239 234 240 239 240 239 232 220 214 214 218 222 228 239 241 242 246 246 247 250 252 258 263 264
212 211 205 203 213 219 212 213 219 222 220 227 227 230 232 234 238 246 247 245 244 243 243 244 241 233 226 227 227 227 226 236 242 244 247 250 253 254 254 255 261 263
237 217 227 203 199 213 204 193 190 202 219 223 218 229 234 237 243 244 242 249 245 251 253 251 246 243 234 223 221 222 226 230 235 238 245 248 250 252 251 254 253 253
246 239 197 187 194 205 201 203 209 214 216 212 205 221 228 244 237 238 247 246 246 246 252 257 252 248 243 234 224 225 229 232 235 240 242 246 255 256 254 252 254 257
220 225 208 189 195 196 205 205 206 201 198 194 207 214 228 225 234 240 244 242 244 261 255 246 248 245 238 235 229 223 234 240 242 247 251 250 249 250 251 253 255 256
186 195 192 195 203 203 205 203 201 196 194 198 202 210 221 229 229 233 238 245 244 234 242 242 239 246 231 252 318 305 242 253 248 244 242 242 251 264 265 255 250 252
175 181 200 210 209 212 207 200 195 193 203 201 204 202 209 214 219 219 221 232 240 234 224 227 224 87 81 65 33 336 293 248 243 244 250 262 264 260 274 274 271 263
170 176 194 200 204 199 192 184 185 190 190 193 196 194 196 182 188 218 221 229 219 217 221 201 141 83 74 76 69 33 332 290 241 267 287 288 272 280 283 287 289 284
174 193 197 196 195 194 184 179 178 185 193 191 179 174 162 177 178 171 164 177 186 190 171 149 110 89 88 84 70 35 326 284 221 219 253 238 258 271 282 291 294 292
190 197 197 193 188 186 183 175 178 183 175 168 156 157 167 157 152 155 142 150 145 138 126 133 102 92 105 108 101 352 288 279 247 200 248 296 300 295 300 299 293 294
191 192 186 175 174 179 172 174 171 165 167 157 157 163 160 151 151 149 142 147 147 143 145 130 94 88 72 52 47 298 272 263 257 259 113 330 323 333 324 326 323 323
188 186 173 172 171 167 166 166 164 164 156 150 154 151 146 144 142 143 144 141 141 143 148 112 77 44 49 43 338 266 271 260 48 30 22 19 14 4 351 348 338 345
181 174 156 160 157 158 163 161 157 152 148 153 149 148 147 145 147 148 146 149 152 162 143 107 84 47 39 32 3 332 295 85 13 55 43 44 29 9 350 347 358 355
161 152 155 150 156 159 157 154 150 150 147 153 148 149 149 145 142 144 149 155 162 137 111 104 94 56 40 25 353 330 311 78 114 93 77 29 45 18 359 343 14 87
152 160 156 157 155 154 151 149 149 146 142 148 145 147 140 142 148 143 149 149 126 111 107 107 102 79 49 16 351 330 309 119 64 82 45 30 3 3 353 337 339 143
158 158 152 149 148 147 146 142 140 141 145 147 149 147 144 143 146 141 142 128 127 129 119 110 110 95 54 11 358 339 337 332 82 24 33 23 5 349 324 349 5 342